[[{"header":{"parameterUnit":"m.s-1","parameterCategory":1,"la1":30.2992,"la2":30.254,"lo1":-89.0895,"lo2":-89.0443,"dy":0.0025,"dx":0.0025,"nx":19,"ny":19,"refTime":"2026-05-01T03:00:00:Z","depth":0,"parameterNumber":2,"parameterNumberName":"U-component_of_WINDS"},"data":[0,0,0,-7.7491,-7.7495,-7.77,-7.7701,-7.7984,-7.7986,0,0,0,0,0,0,0,0,0,0,0,-7.7448,-7.745,-7.749,-7.7496,-7.77,-7.7701,-7.7983,-7.7986,0,0,0,0,0,0,0,0,0,0,0,-7.7446,-7.745,-7.7453,-7.7497,-7.77,-7.7701,-7.7982,-7.7819,0,0,0,0,0,0,0,0,0,0,-7.7617,-7.7596,-7.7449,-7.7453,-7.7498,-7.77,-7.7701,-7.7811,-7.783,-7.7902,0,-7.7974,0,-7.7985,-7.8007,-7.8008,0,0,0,-7.7482,-7.758,-7.762,-7.7453,-7.75,-7.7699,-7.7604,-7.7821,-7.7842,-7.7926,-7.7978,-7.7988,-7.799,-7.8009,-7.8011,-7.8483,-7.8486,0,0,-7.747,-7.7493,-7.7606,-7.7635,-7.7609,-7.7597,-7.761,-7.7833,-7.789,-7.7979,-7.7994,-7.7995,-7.8011,-7.8013,-7.848,-7.8484,0,0,0,-7.7448,-7.7486,-7.7519,-7.7624,-7.7659,-7.7604,-7.7619,-7.788,-7.7889,-7.7997,-7.7998,-7.8013,-7.8017,-7.8477,-7.8482,-7.8648,0,0,0,-7.744,-7.7472,-7.7515,-7.7531,-7.7656,-7.7773,-7.766,-7.7874,-7.7898,-7.7997,-7.8013,-7.802,-7.8474,-7.848,-7.8636,-7.8722,0,0,0,-7.7428,-7.747,-7.7507,-7.7532,-7.7621,-7.7769,-7.779,-7.7878,-7.79,-7.8008,-7.8021,-7.8472,-7.8479,-7.8626,-7.8705,-7.8853,0,0,0,-7.7421,-7.7649,-7.751,-7.7765,-7.7619,-7.7871,-7.7789,-7.7974,-7.8087,-7.8015,-7.8474,-7.8481,-7.8623,-7.8695,-7.8843,-7.8983,-7.9044,0,0,-7.7721,-7.7686,-7.7834,-7.7715,-7.7999,-7.7838,-7.8144,-7.8224,-7.8211,-7.8392,-7.8403,-7.864,-7.8704,-7.8851,-7.9375,-7.9423,0,0,0,-7.7937,-7.8044,-7.8114,-7.8225,-7.8294,-7.8359,-7.8391,-7.842,-7.8573,-7.831,-7.8732,-7.877,-7.8855,-7.8921,-7.8962,-7.9033,-7.8513,-7.8512,-7.8511,-7.8394,-7.8369,-7.8612,-7.8612,-7.8719,-7.875,-7.8834,-7.8878,-7.8818,-7.8918,-7.8972,-7.9293,-7.9372,-7.9402,-7.9477,-7.9043,-7.9044,-7.9045,-7.9045,-7.8832,-7.8979,-7.8897,-7.9104,-7.9074,-7.9245,-7.9282,-7.9234,-7.9387,-7.9251,-7.9324,-7.9178,-7.9456,-7.952,-7.9057,-7.9055,-7.9054,-7.9052,-7.9052,-7.9129,-7.9196,-7.923,-7.9387,-7.951,-7.9499,-7.9651,-7.9617,-7.9586,-7.9659,-7.9711,-7.9708,-7.9701,-7.9686,-7.9687,-7.9689,-7.9689,-7.969,-7.9691,-7.9425,-7.9458,-7.9592,-7.9685,-7.9751,-7.9834,-7.9866,-7.9929,-7.9989,-7.9952,-7.9952,-7.9882,-7.9489,-7.9391,-7.9708,-7.9705,-7.9703,-7.9701,-7.97,-7.9879,-7.9771,-7.9979,-8.0046,-8.0151,-8.0275,-8.023,-8.0361,-8.0407,-8.0483,-8.0397,-8.0112,-8.0072,-8.0039,-7.9958,-8.0403,-8.0403,-8.0403,-8.0403,-8.013,-8.0108,-8.0312,-8.0421,-8.0524,-8.0504,-8.0736,-8.0762,-8.0771,-8.0797,-8.0728,-8.0617,-8.0584,-8.0564,-8.0519,-8.0443,-8.1001,-8.1002,-8.1002,-8.0408,-8.0394,-8.06,-8.0612,-8.0691,-8.0759,-8.0975,-8.11,-8.1087,-8.1026,-8.0817,-8.0792,-8.0612,-8.0555,-8.049,-8.0422,-8.0281,0,0]},{"header":{"parameterUnit":"m.s-1","parameterCategory":1,"la1":30.2992,"la2":30.254,"lo1":-89.0895,"lo2":-89.0443,"dy":0.0025,"dx":0.0025,"nx":19,"ny":19,"refTime":"2026-05-01T03:00:00:Z","depth":0,"parameterNumber":3,"parameterNumberName":"V-component_of_WINDS"},"data":[0,0,0,-6.6592,-6.6597,-6.6844,-6.6845,-6.7154,-6.7157,0,0,0,0,0,0,0,0,0,0,0,-6.652,-6.6523,-6.6592,-6.6598,-6.6844,-6.6845,-6.7154,-6.7157,0,0,0,0,0,0,0,0,0,0,0,-6.6519,-6.6522,-6.6525,-6.6599,-6.6844,-6.6845,-6.7153,-6.6968,0,0,0,0,0,0,0,0,0,0,-6.673,-6.6666,-6.6521,-6.6525,-6.66,-6.6843,-6.6845,-6.6959,-6.698,-6.7042,0,-6.7101,0,-6.7134,-6.7178,-6.7179,0,0,0,-6.6596,-6.6649,-6.6714,-6.6525,-6.6603,-6.6843,-6.6732,-6.6971,-6.6994,-6.7069,-6.7105,-6.7117,-6.7139,-6.718,-6.7181,-6.7553,-6.7555,0,0,-6.6583,-6.6564,-6.6699,-6.6729,-6.6696,-6.6724,-6.674,-6.6985,-6.7022,-6.7107,-6.7124,-6.7144,-6.7182,-6.7184,-6.7551,-6.7553,0,0,0,-6.6545,-6.6555,-6.6615,-6.6717,-6.6762,-6.6732,-6.675,-6.7011,-6.7032,-6.7128,-6.7148,-6.7184,-6.7187,-6.7549,-6.7552,-6.7625,0,0,0,-6.6537,-6.6533,-6.6609,-6.66,-6.6757,-6.689,-6.677,-6.7015,-6.7044,-6.7147,-6.7184,-6.719,-6.7547,-6.7551,-6.7619,-6.7662,0,0,0,-6.6504,-6.6529,-6.6565,-6.6599,-6.6704,-6.6887,-6.6922,-6.7022,-6.7056,-6.7179,-6.7191,-6.7546,-6.755,-6.7613,-6.7653,-6.7753,0,0,0,-6.6463,-6.6626,-6.6566,-6.6756,-6.6702,-6.6931,-6.6921,-6.7092,-6.7206,-6.7185,-6.7548,-6.7552,-6.7611,-6.7647,-6.7747,-6.7835,-6.787,0,0,-6.6658,-6.6649,-6.6762,-6.6716,-6.6951,-6.6895,-6.714,-6.7261,-6.7287,-6.7462,-6.7471,-6.7621,-6.7652,-6.7752,-6.8074,-6.8102,0,0,0,-6.6817,-6.6898,-6.6964,-6.7074,-6.7172,-6.7257,-6.7343,-6.7387,-6.7536,-6.7375,-6.7685,-6.7704,-6.7764,-6.7806,-6.783,-6.7881,-6.7571,-6.757,-6.757,-6.7067,-6.7094,-6.7282,-6.7339,-6.7444,-6.753,-6.7617,-6.7691,-6.7686,-6.7759,-6.781,-6.8003,-6.8052,-6.807,-6.8123,-6.7859,-6.786,-6.786,-6.786,-6.7355,-6.7473,-6.7464,-6.7643,-6.7669,-6.7818,-6.7905,-6.7897,-6.8037,-6.7967,-6.802,-6.794,-6.81,-6.8147,-6.7866,-6.7865,-6.7864,-6.7864,-6.7863,-6.7521,-6.7582,-6.7635,-6.7794,-6.7913,-6.7963,-6.8099,-6.8117,-6.8135,-6.8188,-6.8244,-6.8243,-6.8243,-6.8214,-6.8214,-6.8215,-6.8216,-6.8216,-6.8217,-6.7672,-6.7729,-6.7843,-6.7959,-6.8031,-6.8127,-6.8213,-6.8283,-6.8365,-6.8367,-6.8367,-6.8354,-6.8112,-6.8049,-6.8227,-6.8225,-6.8224,-6.8223,-6.8222,-6.7952,-6.7892,-6.8068,-6.814,-6.8276,-6.8392,-6.8414,-6.8554,-6.8614,-6.8679,-6.8654,-6.8473,-6.8463,-6.8445,-6.8393,-6.8649,-6.8649,-6.8649,-6.8649,-6.8092,-6.8089,-6.8273,-6.8386,-6.8499,-6.8536,-6.8729,-6.8797,-6.8856,-6.8894,-6.8859,-6.8793,-6.8773,-6.8776,-6.875,-6.8702,-6.9031,-6.9031,-6.9032,-6.8265,-6.8274,-6.8437,-6.8498,-6.8605,-6.8696,-6.8878,-6.9004,-6.9059,-6.9048,-6.8923,-6.8907,-6.88,-6.8765,-6.875,-6.8709,-6.8622,0,0]}]]